DateTimeUTC,F1_A11,F1_S11,BsB_S11,BsG_S11,BsR_S11,BbsB_S11,BbsG_S11,BbsR_S11,BaB_A11,BaG_A11,BaR_A11,Tu_S11,T_S11,Uu_S11,U_S11,P_S11,T1_A11
2021-02-18T06:00:00Z,00000200,21000000,,,,,,,-000.28,-000.06,-000.16,16.6,23.4,,00.0,0636.5,31.0
2021-02-18T06:01:00Z,00000200,21000000,,,,,,,-000.01,-000.00,0000.24,16.6,23.4,,00.0,0636.5,31.0
2021-02-18T06:02:00Z,00000200,21000000,,,,,,,-000.16,-000.27,-000.16,16.6,23.4,,00.0,0636.5,31.0
2021-02-18T06:03:00Z,00000200,61000000,,,,,,,-000.12,-000.34,-000.38,16.6,23.4,,00.0,0636.5,31.0
2021-02-18T06:04:00Z,00000200,41000000,-000.24,0000.15,-000.06,0000.06,0000.13,0000.04,0000.03,0000.15,-000.12,16.7,23.2,,00.0,0637.5,31.0
2021-02-18T06:05:00Z,00000200,01000000,0000.64,0000.22,0000.07,-000.05,-000.19,0000.20,0000.01,0000.38,0000.25,16.8,23.1,,00.0,0637.6,31.0
2021-02-18T06:06:00Z,00000200,01000000,-000.16,0000.22,-000.00,0000.45,0000.02,0000.10,0000.10,-000.07,0000.07,16.9,23.2,,00.0,0637.6,31.0
2021-02-18T06:07:00Z,00000200,01000000,-000.22,0000.40,0000.04,0000.02,0000.01,0000.09,-000.25,-000.06,0000.05,17.0,23.2,,00.0,0637.6,31.0
2021-02-18T06:08:00Z,00000200,01000000,0000.47,0000.30,-000.01,0000.34,0000.22,0000.05,0000.30,0000.28,-000.01,17.0,23.2,,00.0,0637.6,31.0
2021-02-18T06:09:00Z,00000200,01000000,0000.05,0000.44,0000.02,0000.01,0000.11,0000.04,0000.07,-000.08,0000.05,17.1,23.2,,00.0,0637.6,31.0
2021-02-18T06:10:00Z,00000200,01000000,-000.42,0000.10,0000.09,0000.25,0000.14,0000.28,0000.22,0000.02,0000.06,17.1,23.3,,00.0,0637.6,31.0
2021-02-18T06:11:00Z,00000200,01000000,-000.27,0000.33,0000.04,0000.69,-000.06,0000.14,-000.27,-000.29,-000.16,17.1,23.3,,00.0,0637.6,31.0
2021-02-18T06:12:00Z,00000200,01000000,0000.15,0000.27,-000.17,0000.21,-000.07,-000.04,0000.03,0000.44,0000.20,17.0,23.2,,00.0,0637.6,31.0
2021-02-18T06:13:00Z,00000200,01000000,-000.54,0000.13,0000.14,0000.25,0000.30,0000.40,-000.05,-000.29,-000.27,17.0,23.2,,00.0,0637.6,31.0
2021-02-18T06:14:00Z,00000200,01000000,0000.49,0000.40,0000.01,0000.50,0000.15,0000.10,0000.06,0000.38,0000.13,17.0,23.2,,00.0,0637.6,31.0
2021-02-18T06:15:00Z,00000200,01000000,0000.41,0000.25,-000.01,0000.33,0000.20,-000.03,-000.23,-000.22,0000.09,16.9,23.2,,00.0,0637.6,31.0
2021-02-18T06:16:00Z,00000200,01000000,0000.51,-000.06,-000.08,0000.49,0000.13,-000.13,0000.12,0000.10,-000.24,16.9,23.2,,00.0,0637.6,31.0
2021-02-18T06:17:00Z,00000200,01000000,0000.87,0000.06,-000.04,-000.34,0000.10,-000.04,-000.05,-000.38,0000.19,16.9,23.2,,00.0,0637.6,31.0
2021-02-18T06:18:00Z,00000200,01000000,-000.28,0000.11,0000.14,0000.19,0000.03,-000.05,-000.13,0000.15,-000.08,16.9,23.2,,00.0,0637.6,31.0
2021-02-18T06:19:00Z,00000200,01000000,-000.11,0000.26,0000.07,0000.10,0000.10,-000.13,0000.04,-000.19,-000.43,16.9,23.2,,00.0,0637.5,31.0
2021-02-18T06:20:00Z,00000200,01000000,0000.47,0000.32,-000.09,0000.31,-000.01,0000.01,0000.08,0000.23,0000.24,16.8,23.1,,00.0,0637.5,31.0
2021-02-18T06:21:00Z,00000200,01000000,0000.21,0000.02,0000.07,0000.20,-000.03,0000.08,-000.00,0000.24,-000.07,16.8,23.1,,00.0,0637.5,31.0
2021-02-18T06:22:00Z,00000200,01000000,-000.78,0000.03,-000.02,-000.10,0000.20,-000.04,-000.22,-000.18,0000.32,16.8,23.1,,00.0,0637.5,31.0
2021-02-18T06:23:00Z,00000200,01000000,-000.14,0000.47,-000.08,0000.61,0000.16,0000.15,0000.13,-000.01,-000.15,16.8,23.1,,00.0,0637.5,31.0
2021-02-18T06:24:00Z,00000200,01000000,0000.80,0000.00,0000.10,0000.25,-000.11,0000.15,0000.25,-000.03,0000.13,16.7,23.1,,00.0,0637.5,31.0
2021-02-18T06:25:00Z,00000200,01000000,-000.21,0000.05,0000.04,0000.39,0000.60,0000.07,-000.29,-000.52,-000.30,16.7,23.1,,00.0,0637.5,31.0
2021-02-18T06:26:00Z,00000200,01000000,-000.31,0000.07,-000.18,-000.02,0000.31,0000.01,0000.14,0000.06,0000.26,16.7,23.1,,00.0,0637.5,31.0
2021-02-18T06:27:00Z,00000200,01000000,0000.27,-000.05,-000.01,-000.10,0000.10,-000.26,0000.17,0000.32,0000.01,16.7,23.0,,00.0,0637.5,31.0
2021-02-18T06:28:00Z,00000200,01000000,-000.34,0000.10,-000.02,0000.25,0000.18,0000.13,-000.37,-000.13,-000.35,16.6,23.0,,00.0,0637.5,31.0
2021-02-18T06:29:00Z,00000200,01000000,-000.21,-000.20,0000.38,0000.16,0000.09,0000.22,0000.16,0000.02,0000.26,16.6,23.0,,00.0,0637.5,31.0
2021-02-18T06:30:00Z,00000200,01000000,-000.44,-000.01,-000.37,0000.86,0000.07,-000.08,-000.06,-000.07,-000.09,16.6,23.0,,00.0,0637.5,31.0
2021-02-18T06:31:00Z,00000200,01000000,0000.04,-000.03,-000.01,0000.71,0000.04,0000.09,0000.04,-000.05,0000.06,16.6,23.0,,00.0,0637.4,31.0
2021-02-18T06:32:00Z,00000200,01000000,-000.08,0000.39,0000.20,0000.34,0000.10,0000.20,0000.02,0000.38,-000.16,16.6,23.0,,00.0,0637.4,31.0
2021-02-18T06:33:00Z,00000200,01000000,0000.29,0000.30,-000.09,-000.20,-000.05,-000.05,0000.11,-000.09,0000.04,16.6,23.0,,00.0,0637.3,31.0
2021-02-18T06:34:00Z,00000200,01000000,-000.17,0000.12,0000.17,0000.19,0000.10,0000.29,0000.19,0000.07,0000.44,16.6,22.9,,00.0,0637.3,31.0
2021-02-18T06:35:00Z,00000200,01000000,0000.26,-000.20,0000.28,0000.37,0000.08,0000.05,0000.31,0000.52,0000.35,16.6,22.9,,00.0,0637.3,31.0
2021-02-18T06:36:00Z,00000200,01000000,-000.05,0000.09,0000.15,0000.09,-000.05,-000.14,0000.44,-000.17,0000.34,16.7,23.0,,00.0,0637.3,31.0
2021-02-18T06:37:00Z,00000200,01000000,0000.29,0000.16,0000.26,0000.42,0000.10,0000.12,0000.05,0000.66,0000.04,16.8,23.0,,00.0,0637.3,31.0
2021-02-18T06:38:00Z,00000200,01000000,0000.35,0000.08,0000.27,0000.17,0000.19,-000.11,0000.33,0000.06,0000.06,16.9,23.0,,00.0,0637.3,31.0
2021-02-18T06:39:00Z,00000200,01000000,-000.07,0000.39,-000.20,0000.01,0000.04,-000.20,0000.08,0000.19,0000.27,17.0,23.1,,00.0,0637.2,31.0
2021-02-18T06:40:00Z,00000200,01000000,-000.31,0000.04,0000.06,0000.12,-000.03,-000.29,0000.39,0000.52,0000.21,17.1,23.2,,00.0,0637.2,31.0
2021-02-18T06:41:00Z,00000200,01000000,0000.13,0000.24,0000.14,0000.17,0000.18,-000.14,-000.18,0000.03,0000.07,17.2,23.2,,00.0,0637.2,31.1
2021-02-18T06:42:00Z,00000200,01000000,-000.67,0000.27,0000.08,0000.01,0000.13,-000.20,0000.45,0000.19,0000.10,17.3,23.3,,00.0,0637.2,31.1
2021-02-18T06:43:00Z,00000200,01000000,0000.62,0000.02,0000.39,0000.06,0000.03,0000.10,0000.15,-000.05,0000.29,17.3,23.3,,00.0,0637.2,31.1
2021-02-18T06:44:00Z,00000200,01000000,0000.15,0000.36,0000.07,-000.19,0000.18,0000.01,-000.31,0000.28,-000.31,17.3,23.3,,00.0,0637.2,31.1
2021-02-18T06:45:00Z,00000200,01000000,-000.19,0000.35,0000.17,0000.84,-000.03,-000.09,0000.00,-000.30,0000.04,17.3,23.3,,00.0,0637.2,31.1
2021-02-18T06:46:00Z,00000200,01000000,0000.26,-000.32,0000.21,0000.22,0000.04,-000.10,0000.29,0000.28,0000.06,17.2,23.3,,00.0,0637.2,31.0
2021-02-18T06:47:00Z,00000200,01000000,0000.30,-000.12,0000.01,0000.18,0000.12,-000.08,-000.06,-000.28,0000.03,17.2,23.3,,00.0,0637.2,31.0
2021-02-18T06:48:00Z,00000200,01000000,0000.12,0000.02,-000.08,0000.01,0000.11,-000.09,0000.14,0000.19,0000.11,17.2,23.3,,00.0,0637.2,31.0
2021-02-18T06:49:00Z,00000200,01000000,-000.21,0000.38,0000.18,0000.27,-000.23,0000.02,0000.21,-000.05,0000.37,17.1,23.3,,00.0,0637.2,31.0
2021-02-18T06:50:00Z,00000200,01000000,0000.17,-000.17,0000.04,-000.09,0000.16,-000.24,0000.05,0000.53,-000.70,17.1,23.2,,00.0,0637.2,31.0
2021-02-18T06:51:00Z,00000200,01000000,-000.09,0000.19,0000.12,0000.47,0000.18,0000.01,0000.09,-000.03,0000.46,17.0,23.2,,00.0,0637.2,31.0
2021-02-18T06:52:00Z,00000200,01000000,-000.15,0000.22,0000.19,0000.43,0000.17,-000.26,-000.08,-000.10,-000.11,17.0,23.2,,00.0,0637.2,31.0
2021-02-18T06:53:00Z,00000200,01000000,0000.18,-000.03,0000.19,-000.16,-000.23,-000.20,0000.05,0000.04,0000.57,17.0,23.2,,00.0,0637.2,31.0
2021-02-18T06:54:00Z,00000200,01000000,0000.57,0000.05,-000.10,0000.72,0000.14,0000.15,0000.37,0000.26,-000.41,17.0,23.2,,00.0,0637.2,31.0
2021-02-18T06:55:00Z,00000200,01000000,0000.68,0000.13,0000.10,0000.03,0000.22,0000.00,-000.03,-000.10,0000.27,16.9,23.2,,00.0,0637.2,31.0
2021-02-18T06:56:00Z,00000200,01000000,0000.12,0000.03,0000.03,-000.30,-000.20,-000.18,0000.28,0000.00,-000.01,16.9,23.2,,00.0,0637.1,31.0
2021-02-18T06:57:00Z,00000200,41000000,,,,,,,-000.30,-000.03,-000.26,16.9,23.2,,00.0,0637.2,31.0
2021-02-18T06:58:00Z,00000200,61000000,,,,,,,-000.03,-000.00,-000.01,16.6,23.3,,00.0,0636.2,31.0
2021-02-18T06:59:00Z,00000200,21000000,,,,,,,0000.36,0000.32,-000.03,16.6,23.4,,00.0,0636.1,31.0
